Regional Weather Roundup
Issued by NWS Goodland, KS

Home | Current Version | Previous Version | Graphics & Text | Print | Product List | Glossary Off
Versions: 1 2 3 4 5 6 7 8 9 10 11 12 13 14 15 16 17 18 19 20 21 22 23 24 25 26 27 28 29 30 31 32 33 34 35 36 37 38 39 40 41 42 43 44 45 46 47 48 49 50

000
ASUS43 KGLD 190659
RWRGLD

GOODLAND FORECAST AREA HOURLY WEATHER ROUNDUP
NATIONAL WEATHER SERVICE GOODLAND KS
100 AM MDT FRI SEP 19 2014

...OFFICIAL OBSERVATIONS...

CITY           SKY/WX    TMP DP  RH WIND       PRES   REMARKS
GOODLAND KS    CLEAR     68  57  68 SW15G23   29.94S
HILL CITY KS   CLEAR     68  63  84 S9        29.92S
IMPERIAL NEB   CLEAR     59  57  93 SE6       29.88F
MCCOOK NEB     FOG       59  58  96 E7        29.88F VSB<1/4
AKRON CO       CLEAR     68  52  56 S15G26    29.95R
BURLINGTON CO  CLEAR     66  55  67 SW14      29.97F
LIMON CO       CLEAR     56  49  77 VRB3      30.04R
$$

...UNOFFICIAL OBSERVATIONS...

CITY           SKY/WX    TMP DP  RH WIND       PRES   REMARKS
COLBY KS       CLEAR     68  63  83 S12       29.93S
GOVE KS          N/A     69  32  25 MISG        N/A
NORTON KS      CLEAR     68  61  77 SE13      29.89S
SHARON SPRINGS   N/A     65  59  80 S7          N/A
WAKEENEY KS      N/A     69  61  75 MISG        N/A
TRENTON NEB      N/A     60  32  34 S6          N/A
YUMA CO          N/A     66  53  63 S12G18      N/A
$$


USA.gov is the U.S. government's official web portal to all federal, state and local government web resources and services.